| time (UTC) | temp F | wind direction | speed MPH | gust MPH | rain 1hr in | rain 24hr in | rain mn in | humidity % | barometer mb |
| 20260901085504 | 51 | 248 | 6.0 | 13.0 | 0.00 | 0.00 | 0.00 | 72 | 1016.7 |
| 20260901085004 | 51 | 260 | 6.0 | 13.0 | 0.00 | 0.00 | 0.00 | 71 | 1016.7 |
| 20260901084504 | 51 | 257 | 6.0 | 13.0 | 0.00 | 0.00 | 0.00 | 71 | 1016.8 |
| 20260901084005 | 51 | 265 | 8.0 | 13.0 | 0.00 | 0.00 | 0.00 | 71 | 1016.7 |
| 20260901083005 | 52 | 266 | 7.0 | 14.0 | 0.00 | 0.00 | 0.00 | 70 | 1016.7 |
| 20260901082006 | 52 | 266 | 7.0 | 14.0 | 0.00 | 0.00 | 0.00 | 69 | 1016.5 |
| 20260901081505 | 52 | 250 | 7.0 | 13.0 | 0.00 | 0.00 | 0.00 | 69 | 1016.4 |
| 20260901080006 | 52 | 242 | 6.0 | 13.0 | 0.00 | 0.00 | 0.00 | 69 | 1016.2 |
| 20260901075005 | 52 | 247 | 6.0 | 13.0 | 0.00 | 0.00 | 0.00 | 69 | 1016.2 |
| 20260901074505 | 52 | 248 | 4.0 | 13.0 | 0.00 | 0.00 | 0.00 | 69 | 1016.2 |
| 20260901074005 | 52 | 256 | 7.0 | 14.0 | 0.00 | 0.00 | 0.00 | 68 | 1016.2 |
| 20260901072006 | 53 | 202 | 4.0 | 15.0 | 0.00 | 0.00 | 0.00 | 69 | 1016.0 |
| 20260901071505 | 53 | 244 | 7.0 | 15.0 | 0.00 | 0.00 | 0.00 | 68 | 1015.9 |
| 20260901071005 | 53 | 244 | 10.0 | 18.0 | 0.00 | 0.00 | 0.00 | 68 | 1015.8 |
| 20260901070005 | 53 | 252 | 6.0 | 13.0 | 0.00 | 0.00 | 0.00 | 69 | 1015.7 |
| 20260901065505 | 53 | 247 | 6.0 | 14.0 | 0.00 | 0.00 | 0.00 | 68 | 1015.7 |
| 20260901065005 | 53 | 242 | 7.0 | 14.0 | 0.00 | 0.00 | 0.00 | 68 | 1015.6 |
| 20260901064506 | 53 | 261 | 6.0 | 12.0 | 0.00 | 0.00 | 0.00 | 67 | 1015.6 |
| 20260901064005 | 54 | 255 | 6.0 | 14.0 | 0.00 | 0.00 | 0.00 | 67 | 1015.5 |
| 20260901063505 | 54 | 263 | 10.0 | 14.0 | 0.00 | 0.00 | 0.00 | 66 | 1015.4 |
| 20260901062506 | 54 | 257 | 7.0 | 14.0 | 0.00 | 0.00 | 0.00 | 66 | 1015.2 |
| 20260901062005 | 54 | 261 | 7.0 | 17.0 | 0.00 | 0.00 | 0.00 | 66 | 1015.1 |
| 20260901061506 | 55 | 273 | 7.0 | 17.0 | 0.00 | 0.00 | 0.00 | 65 | 1015.1 |
| 20260901061005 | 55 | 266 | 9.0 | 17.0 | 0.00 | 0.00 | 0.00 | 65 | 1015.1 |
| 20260901060005 | 55 | 258 | 9.0 | 20.0 | 0.00 | 0.00 | 0.00 | 63 | 1015.0 |
| 20260901055505 | 55 | 262 | 8.0 | 20.0 | 0.00 | 0.00 | 0.00 | 63 | 1015.0 |
| 20260901054505 | 56 | 266 | 6.0 | 17.0 | 0.00 | 0.00 | 0.00 | 63 | 1014.6 |
| 20260901054005 | 56 | 269 | 10.0 | 20.0 | 0.00 | 0.00 | 0.00 | 62 | 1014.6 |
| 20260901053505 | 56 | 271 | 13.0 | 20.0 | 0.00 | 0.00 | 0.00 | 61 | 1014.4 |
| 20260901053005 | 56 | 261 | 7.0 | 18.0 | 0.00 | 0.00 | 0.00 | 62 | 1014.4 |
| 20260901051006 | 57 | 260 | 9.0 | 20.0 | 0.00 | 0.00 | 0.00 | 60 | 1014.0 |
| 20260901050005 | 58 | 263 | 10.0 | 20.0 | 0.00 | 0.00 | 0.00 | 59 | 1013.6 |
| 20260901045505 | 58 | 266 | 7.0 | 20.0 | 0.00 | 0.00 | 0.00 | 59 | 1013.6 |
| 20260901045005 | 58 | 256 | 6.0 | 20.0 | 0.00 | 0.00 | 0.00 | 58 | 1013.7 |
| 20260901044506 | 59 | 269 | 13.0 | 20.0 | 0.00 | 0.00 | 0.00 | 56 | 1013.7 |
| 20260901044005 | 59 | 226 | 9.0 | 16.0 | 0.00 | 0.00 | 0.00 | 56 | 1013.6 |
| 20260901043505 | 59 | 243 | 10.0 | 15.0 | 0.00 | 0.00 | 0.00 | 55 | 1013.5 |
| 20260901042505 | 59 | 242 | 7.0 | 16.0 | 0.00 | 0.00 | 0.00 | 55 | 1013.5 |
| 20260901042005 | 59 | 277 | 7.0 | 16.0 | 0.00 | 0.00 | 0.00 | 55 | 1013.5 |
| 20260901041505 | 59 | 251 | 10.0 | 18.0 | 0.00 | 0.00 | 0.00 | 53 | 1013.4 |
| 20260901041005 | 60 | 261 | 9.0 | 22.0 | 0.00 | 0.00 | 0.00 | 54 | 1013.3 |
| 20260901040005 | 60 | 249 | 9.0 | 18.0 | 0.00 | 0.00 | 0.00 | 54 | 1013.0 |
| 20260901035505 | 60 | 259 | 10.0 | 18.0 | 0.00 | 0.00 | 0.00 | 54 | 1013.0 |
| 20260901035005 | 60 | 256 | 8.0 | 16.0 | 0.00 | 0.00 | 0.00 | 55 | 1013.0 |
| 20260901034505 | 60 | 240 | 9.0 | 16.0 | 0.00 | 0.00 | 0.00 | 53 | 1013.0 |
| 20260901034005 | 60 | 230 | 7.0 | 21.0 | 0.00 | 0.00 | 0.00 | 55 | 1012.9 |
| 20260901033505 | 60 | 231 | 10.0 | 21.0 | 0.00 | 0.00 | 0.00 | 54 | 1012.9 |
| 20260901033005 | 60 | 266 | 11.0 | 21.0 | 0.00 | 0.00 | 0.00 | 54 | 1012.8 |
| 20260901032505 | 60 | 266 | 12.0 | 21.0 | 0.00 | 0.00 | 0.00 | 55 | 1012.8 |
| 20260901032005 | 60 | 253 | 11.0 | 20.0 | 0.00 | 0.00 | 0.00 | 54 | 1012.9 |
| 20260901031505 | 61 | 243 | 9.0 | 20.0 | 0.00 | 0.00 | 0.00 | 54 | 1012.9 |
| 20260901031005 | 61 | 254 | 10.0 | 21.0 | 0.00 | 0.00 | 0.00 | 54 | 1013.0 |
| 20260901025505 | 60 | 234 | 7.0 | 20.0 | 0.00 | 0.00 | 0.00 | 55 | 1012.9 |
| 20260901025006 | 60 | 238 | 10.0 | 20.0 | 0.00 | 0.00 | 0.00 | 57 | 1012.8 |
| 20260901024505 | 59 | 266 | 14.0 | 21.0 | 0.00 | 0.00 | 0.00 | 55 | 1012.7 |
| 20260901024004 | 60 | 252 | 10.0 | 21.0 | 0.00 | 0.00 | 0.00 | 56 | 1012.6 |
| 20260901023505 | 60 | 259 | 13.0 | 21.0 | 0.00 | 0.00 | 0.00 | 54 | 1012.5 |
| 20260901023005 | 60 | 262 | 11.0 | 20.0 | 0.00 | 0.00 | 0.00 | 55 | 1012.6 |
| 20260901022005 | 61 | 246 | 9.0 | 13.0 | 0.00 | 0.00 | 0.00 | 54 | 1012.5 |
| 20260901021505 | 61 | 225 | 6.0 | 16.0 | 0.00 | 0.00 | 0.00 | 56 | 1012.5 |
| 20260901021005 | 60 | 233 | 8.0 | 25.0 | 0.00 | 0.00 | 0.00 | 55 | 1012.5 |
| 20260901020005 | 60 | 177 | 6.0 | 16.0 | 0.00 | 0.00 | 0.00 | 53 | 1012.5 |
| 20260901013505 | 60 | 171 | 6.0 | 16.0 | 0.00 | 0.00 | 0.00 | 58 | 1012.5 |
| 20260901013005 | 60 | 256 | 5.0 | 20.0 | 0.00 | 0.00 | 0.00 | 58 | 1012.5 |
| 20260901012505 | 59 | 253 | 9.0 | 22.0 | 0.00 | 0.00 | 0.00 | 59 | 1012.6 |
| 20260901011505 | 58 | 234 | 5.0 | 10.0 | 0.00 | 0.00 | 0.00 | 61 | 1013.0 |
| 20260901011005 | 58 | 233 | 2.0 | 13.0 | 0.00 | 0.00 | 0.00 | 61 | 1013.1 |
| 20260901010005 | 58 | 246 | 7.0 | 18.0 | 0.00 | 0.00 | 0.00 | 59 | 1013.3 |
| 20260901005505 | 58 | 238 | 9.0 | 18.0 | 0.00 | 0.00 | 0.00 | 58 | 1013.4 |
| 20260901005005 | 58 | 243 | 7.0 | 17.0 | 0.00 | 0.00 | 0.00 | 59 | 1013.5 |
| 20260901004505 | 58 | 255 | 9.0 | 18.0 | 0.00 | 0.00 | 0.00 | 58 | 1013.5 |
| 20260901004005 | 59 | 252 | 12.0 | 20.0 | 0.00 | 0.00 | 0.00 | 56 | 1013.6 |
| 20260901003505 | 59 | 233 | 8.0 | 20.0 | 0.00 | 0.00 | 0.00 | 56 | 1013.5 |
| 20260901003005 | 60 | 268 | 6.0 | 13.0 | 0.00 | 0.00 | 0.00 | 57 | 1013.6 |
| 20260901002505 | 59 | 242 | 6.0 | 16.0 | 0.00 | 0.00 | 0.00 | 56 | 1013.7 |
| 20260901002005 | 59 | 241 | 10.0 | 16.0 | 0.00 | 0.00 | 0.00 | 55 | 1013.7 |
| 20260901001505 | 60 | 241 | 7.0 | 26.0 | 0.00 | 0.00 | 0.00 | 55 | 1013.9 |
| 20260901001005 | 59 | 231 | 9.0 | 26.0 | 0.00 | 0.00 | 0.00 | 56 | 1013.8 |
| 20260901000005 | 59 | 257 | 12.0 | 22.0 | 0.00 | 0.00 | 0.00 | 56 | 1013.9 |
| 20260831235505 | 59 | 261 | 12.0 | 22.0 | 0.00 | 0.00 | 0.00 | 56 | 1013.9 |
| 20260831235004 | 58 | 237 | 9.0 | 18.0 | 0.00 | 0.00 | 0.00 | 58 | 1013.9 |
| 20260831234504 | 58 | 215 | 5.0 | 12.0 | 0.00 | 0.00 | 0.00 | 57 | 1013.8 |
| 20260831234005 | 59 | 248 | 3.0 | 14.0 | 0.00 | 0.00 | 0.00 | 59 | 1013.8 |
| 20260831233505 | 58 | 243 | 6.0 | 15.0 | 0.00 | 0.00 | 0.00 | 58 | 1013.7 |
| 20260831233005 | 58 | 241 | 8.0 | 20.0 | 0.00 | 0.00 | 0.00 | 57 | 1013.6 |
| 20260831231505 | 57 | 219 | 5.0 | 15.0 | 0.00 | 0.00 | 0.00 | 59 | 1013.7 |
| 20260831230005 | 57 | 258 | 7.0 | 20.0 | 0.00 | 0.00 | 0.00 | 61 | 1013.5 |
| 20260831225504 | 57 | 280 | 7.0 | 20.0 | 0.00 | 0.00 | 0.00 | 61 | 1013.6 |
| 20260831225004 | 57 | 233 | 5.0 | 18.0 | 0.00 | 0.00 | 0.00 | 60 | 1013.6 |
| 20260831224505 | 56 | 250 | 9.0 | 18.0 | 0.00 | 0.00 | 0.00 | 60 | 1013.7 |
| 20260831223505 | 56 | 259 | 5.0 | 26.0 | 0.00 | 0.00 | 0.00 | 61 | 1013.5 |
| 20260831223004 | 56 | 229 | 9.0 | 26.0 | 0.00 | 0.00 | 0.00 | 60 | 1013.5 |
| 20260831222505 | 55 | 189 | 11.0 | 20.0 | 0.00 | 0.00 | 0.00 | 62 | 1013.4 |
| 20260831221005 | 56 | 237 | 5.0 | 13.0 | 0.00 | 0.00 | 0.00 | 61 | 1013.4 |
| 20260831220004 | 55 | 263 | 7.0 | 16.0 | 0.00 | 0.00 | 0.00 | 62 | 1013.4 |
| 20260831215505 | 55 | 253 | 5.0 | 12.0 | 0.00 | 0.00 | 0.00 | 64 | 1013.5 |
| 20260831215004 | 55 | 247 | 3.0 | 10.0 | 0.00 | 0.00 | 0.00 | 64 | 1013.3 |
| 20260831214504 | 55 | 262 | 5.0 | 10.0 | 0.00 | 0.00 | 0.00 | 62 | 1013.3 |
| 20260831214004 | 55 | 218 | 2.0 | 5.0 | 0.00 | 0.00 | 0.00 | 63 | 1013.2 |
| 20260831213504 | 54 | 211 | 3.0 | 5.0 | 0.00 | 0.00 | 0.00 | 63 | 1013.2 |
| 20260831213005 | 54 | 193 | 1.0 | 10.0 | 0.00 | 0.00 | 0.00 | 66 | 1013.2 |
| 20260831212505 | 54 | 223 | 2.0 | 13.0 | 0.00 | 0.00 | 0.00 | 64 | 1013.0 |
| 20260831212005 | 54 | 247 | 6.0 | 13.0 | 0.00 | 0.00 | 0.00 | 63 | 1013.1 |
| 20260831211505 | 54 | 246 | 3.0 | 7.0 | 0.00 | 0.00 | 0.00 | 63 | 1013.1 |
| 20260831211004 | 54 | 264 | 5.0 | 9.0 | 0.00 | 0.00 | 0.00 | 63 | 1013.0 |
| 20260831210004 | 54 | 253 | 4.0 | 10.0 | 0.00 | 0.00 | 0.00 | 64 | 1012.9 |
| 20260831205005 | 54 | 265 | 5.0 | 10.0 | 0.00 | 0.00 | 0.00 | 62 | 1012.5 |
| 20260831204504 | 54 | 251 | 3.0 | 13.0 | 0.00 | 0.00 | 0.00 | 62 | 1012.5 |
| 20260831204005 | 54 | 202 | 3.0 | 13.0 | 0.00 | 0.00 | 0.00 | 62 | 1012.5 |
| 20260831203504 | 54 | 190 | 2.0 | 8.0 | 0.00 | 0.00 | 0.00 | 63 | 1012.3 |
| 20260831203005 | 54 | 263 | 3.0 | 12.0 | 0.00 | 0.00 | 0.00 | 62 | 1012.0 |
| 20260831202505 | 53 | 255 | 3.0 | 12.0 | 0.00 | 0.00 | 0.00 | 64 | 1012.0 |
| 20260831202004 | 53 | 247 | 3.0 | 12.0 | 0.00 | 0.00 | 0.00 | 64 | 1012.0 |
| 20260831201504 | 53 | 257 | 2.0 | 10.0 | 0.00 | 0.00 | 0.00 | 65 | 1012.0 |
| 20260831201005 | 53 | 236 | 3.0 | 12.0 | 0.00 | 0.00 | 0.00 | 64 | 1012.0 |
| 20260831200004 | 53 | 249 | 5.0 | 12.0 | 0.00 | 0.00 | 0.00 | 64 | 1012.0 |
| 20260831195506 | 53 | 256 | 7.0 | 12.0 | 0.00 | 0.00 | 0.00 | 64 | 1011.7 |
| 20260831195004 | 52 | 258 | 6.0 | 12.0 | 0.00 | 0.00 | 0.00 | 65 | 1011.6 |
| 20260831194505 | 52 | 270 | 5.0 | 10.0 | 0.00 | 0.00 | 0.00 | 65 | 1011.6 |
| 20260831193505 | 52 | 264 | 2.0 | 6.0 | 0.00 | 0.00 | 0.00 | 65 | 1011.4 |
| 20260831193005 | 52 | 252 | 2.0 | 9.0 | 0.00 | 0.00 | 0.00 | 65 | 1011.4 |
| 20260831192505 | 52 | 272 | 3.0 | 9.0 | 0.00 | 0.00 | 0.00 | 65 | 1011.4 |
| 20260831192005 | 52 | 248 | 5.0 | 13.0 | 0.00 | 0.00 | 0.00 | 65 | 1011.1 |
| 20260831191505 | 52 | 245 | 3.0 | 13.0 | 0.00 | 0.00 | 0.00 | 65 | 1011.0 |
| 20260831191005 | 52 | 279 | 2.0 | 10.0 | 0.00 | 0.00 | 0.00 | 66 | 1011.0 |
| 20260831190006 | 52 | 224 | 2.0 | 7.0 | 0.00 | 0.00 | 0.00 | 66 | 1011.0 |
| 20260831185504 | 52 | 269 | 2.0 | 13.0 | 0.00 | 0.00 | 0.00 | 66 | 1011.0 |
| 20260831185005 | 52 | 248 | 6.0 | 13.0 | 0.00 | 0.00 | 0.00 | 65 | 1011.0 |
| 20260831184506 | 52 | 270 | 2.0 | 10.0 | 0.00 | 0.00 | 0.00 | 66 | 1010.8 |
| 20260831182504 | 51 | 216 | 1.0 | 7.0 | 0.00 | 0.00 | 0.00 | 68 | 1010.5 |
| 20260831182005 | 51 | 292 | 3.0 | 7.0 | 0.00 | 0.00 | 0.00 | 68 | 1010.3 |
| 20260831181504 | 52 | 302 | 0.0 | 6.0 | 0.00 | 0.00 | 0.00 | 69 | 1010.2 |
| 20260831181004 | 52 | 231 | 3.0 | 8.0 | 0.00 | 0.00 | 0.00 | 68 | 1010.3 |
| 20260831180004 | 52 | 267 | 7.0 | 13.0 | 0.00 | 0.00 | 0.00 | 69 | 1009.9 |
| 20260831175505 | 51 | 274 | 5.0 | 9.0 | 0.00 | 0.00 | 0.00 | 69 | 1009.8 |
| 20260831175005 | 51 | 273 | 3.0 | 5.0 | 0.00 | 0.00 | 0.00 | 70 | 1009.9 |
| 20260831174005 | 51 | 264 | 1.0 | 3.0 | 0.00 | 0.00 | 0.00 | 70 | 1009.8 |
| 20260831173005 | 51 | 305 | 2.0 | 7.0 | 0.00 | 0.00 | 0.00 | 69 | 1009.5 |
| 20260831172504 | 52 | 248 | 2.0 | 12.0 | 0.00 | 0.00 | 0.00 | 69 | 1009.4 |
| 20260831172004 | 51 | 271 | 4.0 | 12.0 | 0.00 | 0.00 | 0.00 | 69 | 1009.2 |
| 20260831171504 | 51 | 325 | 4.0 | 7.0 | 0.00 | 0.00 | 0.00 | 70 | 1009.1 |
| 20260831171006 | 51 | 244 | 2.0 | 7.0 | 0.00 | 0.00 | 0.00 | 70 | 1008.9 |
| 20260831170005 | 51 | 292 | 2.0 | 5.0 | 0.00 | 0.00 | 0.00 | 70 | 1008.9 |
| 20260831165506 | 52 | 283 | 2.0 | 13.0 | 0.00 | 0.00 | 0.00 | 70 | 1008.8 |
| 20260831165005 | 52 | 280 | 2.0 | 13.0 | 0.00 | 0.00 | 0.00 | 69 | 1008.8 |
| 20260831164504 | 52 | 246 | 6.0 | 15.0 | 0.00 | 0.00 | 0.00 | 69 | 1008.8 |
| 20260831164004 | 52 | 253 | 3.0 | 15.0 | 0.00 | 0.00 | 0.00 | 70 | 1008.6 |
| 20260831163505 | 52 | 271 | 4.0 | 15.0 | 0.00 | 0.00 | 0.00 | 70 | 1008.4 |
| 20260831163005 | 52 | 281 | 4.0 | 12.0 | 0.00 | 0.00 | 0.00 | 70 | 1008.3 |
| 20260831162004 | 52 | 267 | 3.0 | 14.0 | 0.00 | 0.00 | 0.00 | 70 | 1008.3 |
| 20260831161504 | 52 | 263 | 9.0 | 14.0 | 0.00 | 0.00 | 0.00 | 71 | 1008.3 |
| 20260831161005 | 52 | 234 | 2.0 | 13.0 | 0.00 | 0.00 | 0.00 | 71 | 1008.3 |
| 20260831160005 | 52 | 256 | 7.0 | 13.0 | 0.00 | 0.00 | 0.00 | 72 | 1008.4 |
| 20260831155504 | 52 | 265 | 6.0 | 12.0 | 0.00 | 0.00 | 0.00 | 73 | 1008.3 |
| 20260831155004 | 53 | 263 | 7.0 | 13.0 | 0.00 | 0.00 | 0.00 | 72 | 1008.4 |
| 20260831154504 | 53 | 267 | 4.0 | 14.0 | 0.00 | 0.00 | 0.00 | 72 | 1008.4 |
| 20260831153504 | 53 | 267 | 6.0 | 15.0 | 0.00 | 0.00 | 0.00 | 72 | 1008.6 |
| 20260831152505 | 53 | 272 | 3.0 | 15.0 | 0.00 | 0.00 | 0.00 | 72 | 1008.3 |
| 20260831152004 | 53 | 294 | 3.0 | 14.0 | 0.00 | 0.00 | 0.00 | 72 | 1008.3 |
| 20260831151504 | 53 | 279 | 1.0 | 12.0 | 0.00 | 0.00 | 0.00 | 72 | 1008.3 |
| 20260831151004 | 53 | 274 | 3.0 | 12.0 | 0.00 | 0.00 | 0.00 | 72 | 1008.3 |
| 20260831150005 | 53 | 261 | 5.0 | 13.0 | 0.00 | 0.00 | 0.00 | 72 | 1008.3 |
| 20260831145505 | 53 | 263 | 6.0 | 13.0 | 0.00 | 0.00 | 0.00 | 72 | 1008.3 |
| 20260831145004 | 53 | 259 | 7.0 | 14.0 | 0.00 | 0.00 | 0.00 | 72 | 1008.3 |
| 20260831144005 | 54 | 271 | 9.0 | 15.0 | 0.00 | 0.00 | 0.00 | 72 | 1008.4 |
| 20260831143504 | 54 | 257 | 5.0 | 13.0 | 0.00 | 0.00 | 0.00 | 73 | 1008.3 |
| 20260831143004 | 53 | 268 | 6.0 | 13.0 | 0.00 | 0.00 | 0.00 | 73 | 1008.3 |
| 20260831142004 | 54 | 308 | 3.0 | 12.0 | 0.00 | 0.00 | 0.00 | 74 | 1008.3 |
| 20260831141504 | 54 | 278 | 4.0 | 12.0 | 0.00 | 0.00 | 0.00 | 74 | 1008.5 |
| 20260831141004 | 54 | 269 | 7.0 | 12.0 | 0.00 | 0.00 | 0.00 | 74 | 1008.8 |
| 20260831140005 | 54 | 211 | 3.0 | 10.0 | 0.00 | 0.00 | 0.00 | 74 | 1008.8 |
| 20260831135504 | 54 | 265 | 3.0 | 13.0 | 0.00 | 0.00 | 0.00 | 75 | 1008.7 |
| 20260831135005 | 54 | 254 | 5.0 | 13.0 | 0.00 | 0.00 | 0.00 | 74 | 1008.6 |
| 20260831134505 | 54 | 232 | 3.0 | 13.0 | 0.00 | 0.00 | 0.00 | 74 | 1008.4 |
| 20260831134005 | 54 | 234 | 6.0 | 14.0 | 0.00 | 0.00 | 0.00 | 74 | 1008.3 |
| 20260831133505 | 54 | 250 | 7.0 | 15.0 | 0.00 | 0.00 | 0.00 | 76 | 1008.4 |
| 20260831133004 | 54 | 210 | 3.0 | 15.0 | 0.00 | 0.00 | 0.00 | 74 | 1008.4 |
| 20260831132504 | 54 | 223 | 7.0 | 20.0 | 0.00 | 0.00 | 0.00 | 73 | 1008.3 |
| 20260831132005 | 54 | 216 | 11.0 | 20.0 | 0.00 | 0.00 | 0.00 | 74 | 1008.3 |
| 20260831131504 | 53 | 248 | 7.0 | 14.0 | 0.00 | 0.00 | 0.00 | 74 | 1008.2 |
| 20260831130004 | 53 | 281 | 5.0 | 13.0 | 0.00 | 0.00 | 0.00 | 74 | 1007.7 |
| 20260831125504 | 53 | 266 | 4.0 | 13.0 | 0.00 | 0.00 | 0.00 | 74 | 1007.7 |
| 20260831125004 | 54 | 276 | 9.0 | 17.0 | 0.00 | 0.00 | 0.00 | 73 | 1007.8 |
| 20260831124504 | 54 | 244 | 7.0 | 20.0 | 0.00 | 0.00 | 0.00 | 72 | 1007.8 |
| 20260831124004 | 54 | 253 | 12.0 | 20.0 | 0.00 | 0.00 | 0.00 | 72 | 1007.8 |
| 20260831123504 | 53 | 253 | 9.0 | 16.0 | 0.00 | 0.00 | 0.00 | 73 | 1007.7 |
| 20260831123004 | 54 | 264 | 7.0 | 20.0 | 0.00 | 0.00 | 0.00 | 72 | 1007.7 |
| 20260831122504 | 54 | 233 | 11.0 | 20.0 | 0.00 | 0.00 | 0.00 | 72 | 1007.7 |
| 20260831122004 | 54 | 267 | 12.0 | 18.0 | 0.00 | 0.00 | 0.00 | 72 | 1007.7 |
| 20260831121504 | 54 | 275 | 8.0 | 21.0 | 0.00 | 0.00 | 0.00 | 72 | 1007.6 |
| 20260831121005 | 54 | 259 | 7.0 | 21.0 | 0.00 | 0.00 | 0.00 | 71 | 1007.6 |
| 20260831120004 | 54 | 259 | 8.0 | 20.0 | 0.00 | 0.00 | 0.00 | 71 | 1007.7 |
| 20260831115504 | 54 | 262 | 12.0 | 20.0 | 0.00 | 0.00 | 0.00 | 70 | 1007.7 |
| 20260831115004 | 54 | 236 | 9.0 | 20.0 | 0.00 | 0.00 | 0.00 | 71 | 1007.7 |
| 20260831114504 | 54 | 276 | 10.0 | 20.0 | 0.00 | 0.00 | 0.00 | 71 | 1007.6 |
| 20260831114004 | 54 | 263 | 14.0 | 23.0 | 0.00 | 0.00 | 0.00 | 71 | 1007.7 |
| 20260831113504 | 54 | 236 | 12.0 | 23.0 | 0.00 | 0.00 | 0.00 | 71 | 1007.7 |
| 20260831113004 | 54 | 246 | 9.0 | 22.0 | 0.00 | 0.00 | 0.00 | 71 | 1007.7 |
| 20260831112505 | 54 | 275 | 10.0 | 23.0 | 0.00 | 0.00 | 0.00 | 70 | 1007.7 |
| 20260831112005 | 54 | 270 | 15.0 | 25.0 | 0.00 | 0.00 | 0.00 | 71 | 1007.4 |
| 20260831111505 | 54 | 230 | 12.0 | 25.0 | 0.00 | 0.00 | 0.00 | 71 | 1007.3 |
| 20260831111005 | 54 | 255 | 13.0 | 23.0 | 0.00 | 0.00 | 0.00 | 71 | 1007.2 |
| 20260831110004 | 54 | 265 | 12.0 | 25.0 | 0.00 | 0.00 | 0.00 | 71 | 1007.2 |
| 20260831105504 | 54 | 247 | 14.0 | 26.0 | 0.00 | 0.00 | 0.00 | 72 | 1007.0 |
| 20260831105005 | 54 | 268 | 16.0 | 26.0 | 0.00 | 0.00 | 0.00 | 72 | 1007.2 |
| 20260831104504 | 54 | 264 | 12.0 | 28.0 | 0.00 | 0.00 | 0.00 | 72 | 1007.2 |
| 20260831104004 | 54 | 257 | 13.0 | 28.0 | 0.00 | 0.00 | 0.00 | 72 | 1007.2 |
| 20260831103504 | 54 | 253 | 12.0 | 25.0 | 0.00 | 0.00 | 0.00 | 71 | 1007.3 |
| 20260831103004 | 54 | 247 | 11.0 | 26.0 | 0.00 | 0.00 | 0.00 | 72 | 1007.4 |
| 20260831102004 | 54 | 261 | 9.0 | 22.0 | 0.00 | 0.00 | 0.00 | 73 | 1007.3 |
| 20260831101504 | 54 | 267 | 11.0 | 22.0 | 0.00 | 0.00 | 0.00 | 73 | 1007.2 |
| 20260831101004 | 54 | 257 | 10.0 | 20.0 | 0.00 | 0.00 | 0.00 | 72 | 1007.2 |
| 20260831100004 | 54 | 250 | 9.0 | 18.0 | 0.00 | 0.00 | 0.00 | 72 | 1006.8 |
| 20260831095504 | 54 | 256 | 9.0 | 20.0 | 0.00 | 0.00 | 0.00 | 72 | 1006.8 |
| 20260831095004 | 54 | 256 | 12.0 | 20.0 | 0.00 | 0.00 | 0.00 | 72 | 1006.8 |
| 20260831094504 | 54 | 264 | 6.0 | 22.0 | 0.00 | 0.00 | 0.00 | 73 | 1006.8 |
| 20260831094004 | 54 | 273 | 6.0 | 22.0 | 0.00 | 0.00 | 0.00 | 73 | 1006.8 |
| 20260831093504 | 54 | 270 | 5.0 | 16.0 | 0.00 | 0.00 | 0.00 | 73 | 1006.8 |
| 20260831093004 | 54 | 260 | 6.0 | 16.0 | 0.00 | 0.00 | 0.00 | 73 | 1006.8 |
| 20260831091004 | 54 | 284 | 4.0 | 22.0 | 0.00 | 0.00 | 0.00 | 73 | 1006.7 |
| 20260831090004 | 54 | 260 | 5.0 | 15.0 | 0.00 | 0.00 | 0.00 | 72 | 1006.7 |